Location: Vlissingen
(51.4500°N, 3.5830°E)
Time: 13:43:50
(UTC+01:00)

N. Korean satellite - Pass Details

Date: 08 December 2021
Orbit: 447 x 490 km, 97.3° (Epoch: 27 January)

Event Time Altitude Azimuth Distance (km) Brightness Sun altitude
Rises 05:27:21 0° 23° (NNE) 2,467 10.4 -28.4°
Reaches altitude 10° 05:29:38 10° 36° (NE) 1,587 9.5 -28.0°
Maximum altitude 05:32:32 26° 95° (E) 928 8.6 -27.6°
Drops below altitude 10° 05:35:24 10° 154° (SSE) 1,575 9.5 -27.1°
Sets 05:37:39 0° 167° (SSE) 2,444 10.3 -26.8°
